STARLINK-1102 (44920 NORAD) Tracking and Keplerian Element Data

This shows tracking and keplerian element data for the satellite.

Feedback or suggestion? Click here.




ElementValue
Catalog44920
NameSTARLINK-1102
Epoch Orbit175
Epoch Day193.91667824
Epoch Year2020
RAAN264.7216
Inclination52.9982
Eccentricity0.0001426
Argument of Perigee113.5076
Mean Anonmoly173.7022
Mean Motion15.05617161
Decay Rate-0.00025712
L11 44920U 20001G 20193.91667824 -.00025712 00000-0 -17501-2 0 9995
L22 44920 52.9982 264.7216 0001426 113.5076 173.7022 15.05617161 1758

Live tracking and technical data element details for STARLINK-1102 (NORAD 44920). STARLINK-1102 can be tracked NOW for your location showing map with azimuth and elevation plus other details from your city location.

Track the satellite on the map from your city or location and see movement details for azimuth, elevation, latitude, longitude, range, height, and movement on the map or in text.







IsCatalogInMostPopularTable: catalog: 44920, numindb: 38
Update: records affected: 1



GetName: 44920 STARLINK-1102

Hit Count: updated at: Mon, 13 Jul 2020 05:13:31 GMT